Showing default

TOMORROW-S6, 63225

Orbit data source: Space-Track

TOMORROW-S6, 63225 is a payload satellite owned by Tomorrow.io (US) in SSO that was launched on Sat, 15 Mar 2025 UTC via an FALCON 9 launch vehicle from the Air Force Western Test Range (AFWTR). Payload-class satellites include a variety of spacecraft equipped with specific instruments for various scientific and technological missions. These include communications satellites like Starlink; space stations such as the ISS; scientific satellites like the Hubble; Earth observation satellites from companies like Planet Labs, Umbra, and HawkEye 360; GPS; miniature CubeSats for education and research; and military/defense satellites.

Loading next visibility...
Identifier
63225, 2025-052R
Orbit
SSO
Country
Flag of USUS
Related business
Manufacturer
Blue Canyon
Mission
Operational Commercial Weather
Bus & Motor
CUBESAT 6U, Unknown motor
Mass
12 kg wet, 12 kg dry
Launch date (UTC)
2025-03-15 (1 year ago)
Launch vehicle
FALCON 9
Launch site
Air Force Western Test Range (AFWTR)
Object type
Payload
Rocket body
Debris
Shape & HBR
Box + 2 Pan, 1.0 m
Radar Cross Section
0.138 m², Medium (>0.1 m² and < 1m²)

Expand to show TLE details & history
Last TLE update: 12 hours ago

TLE from 12 hours ago
0 TOMORROW-S6
1 63225U 25052R   26129.64739425  .00003177  00000-0  14177-3 0  9993
2 63225  97.4049  23.1420 0003345 271.1076  88.9777 15.22101700 63985
Epoch: 2026-05-09T15:32Z
TLE epoch observation values (Epoch: 2026-05-09T15:32:14.863Z)
Latitude
-0.00001°
Longitude
-77.38175°
Altitude
502.555 km
Speed
7.613 km/s
True Right ascension
01h 32m 34s
True Declination
0° 00' 00"
Sunlit
Object was in daylight at epoch
Visualization orbit readout
Latitude
Unknown
Longitude
Unknown
Altitude
Unknown
Speed
Unknown
Apparent Right ascension
Unknown
Apparent Declination
Unknown
Sunlit
N/A
Visualization observer readout
Local Sidereal Time
11:57:31
Azimuth
Unknown
Elevation
Unknown
Doppler factor
Unknown
Orbital elements
Apogee altitude
498.765 km
Perigee altitude
494.166 km
Semi-major axis
6,874.602 km
Eccentricity
0.00033
Inclination
97.4049°
RAAN
23.142°
Arg. of periapsis
271.1076°
True anomaly
89.01603°
Mean anomaly
88.9777°
Eccentric anomaly
88.99686°
Mean motion
3.80778 °/min
Orbital period
94.54 mins
BSTAR
0.00014177
Loading maneuver chart data...
Computing Atmospheric mass density...
Loading historical data...
Loading historical data...
Loading historical data...
Loading historical data...
Loading historical data...
Loading historical data...
Loading historical data...

Documentation

Showing up to 5 results
|